User: anonymous   Login
Location: Corcelles
(46.1547°N, 4.7234°E)
Time: 23:51:55
(UTC+00:00)
Language:

CZ-4C R/B - Orbit

View from above orbital plane
View from above orbital plane
View from above satellite
View from above satellite

Ground track
Ground track

The orbit data is extracted from the following two-line orbital elements,

1 39211U 13037D   20275.40004908 +.00001451 +00000-0 +89732-4 0  9995
2 39211 097.9877 048.5736 0123231 207.2984 152.1731 15.05535620395089
Epoch (UTC): 01 October 2020 09:36:04
Eccentricity: 0.0123231
inclination: 97.9877°
perigee height: 464 km
apogee height: 635 km
right ascension of ascending node: 48.5736°
argument of perigee: 207.2984°
revolutions per day: 15.05535620
mean anomaly at epoch: 152.1731°
orbit number at epoch: 39508

The dashed part of the orbit path shows where the satellite is in the earth's shadow,  

DLR